Flag for France

Past Weather in Nancy, Grand-Est, France — Yesterday and Last 2 Weeks

Currently: 32 °F. Partly cloudy. (Weather station: Nancy / Ochey, France). See more current weather

Past Weather in Nancy — Graph

°F

Nancy Temperature Yesterday

Maximum temperature yesterday: 37 °F (at 2:00 pm)
Minimum temperature yesterday: 32 °F (at 3:30 am)
Average temperature yesterday: 33 °F

High & Low Weather Summary for the Past Weeks

 TemperatureHumidityPressure
High52 °F (Jan 20, 12:30 pm)100% (Jan 11, 7:30 am)30.36 "Hg (Jan 11, 7:30 am)
Low16 °F (Jan 16, 5:30 am)54% (Jan 21, 1:00 am)29.27 "Hg (Jan 22, 6:00 am)
Average35 °F88%29.88 "Hg
* Reported Jan 10 6:00 pm — Jan 25 6:00 pm, Nancy. Weather by CustomWeather, © 2021

Note: Actual official high and low records may vary slightly from our data, if they occured in-between our weather recording intervals... More about our weather records

Nancy Weather History for the Previous 24 Hours

Scroll right to see more
 ConditionsComfort  
Time TempWeatherWind HumidityBarometerVisibility
6:00 pm
Mon, Jan 25
32 °FPassing clouds.6 mph93%29.83 "HgN/A
5:30 pm34 °FPassing clouds.5 mph87%29.80 "HgN/A
5:00 pm34 °FMostly cloudy.5 mph93%29.80 "HgN/A
4:30 pm34 °FMostly cloudy.6 mph93%29.77 "HgN/A
4:00 pm34 °FOvercast.7 mph93%29.74 "HgN/A
3:30 pm34 °FLow clouds.6 mph93%29.74 "HgN/A
3:00 pm34 °FBroken clouds.8 mph93%29.74 "HgN/A
2:00 pm32 °FLight snow. Ice fog.7 mph100%29.68 "Hg3 mi
1:30 pm32 °FHeavy snow. Ice fog.6 mph100%29.68 "Hg1 mi
1:00 pm34 °FFog.6 mph93%29.68 "Hg3 mi
12:30 pm34 °FLow clouds.7 mph93%29.65 "HgN/A
12:00 pm34 °FLow clouds.7 mph93%29.65 "HgN/A
11:30 am32 °FLight snow. Ice fog.7 mph100%29.65 "Hg1 mi
11:00 am32 °FLight snow. Ice fog.9 mph100%29.62 "Hg3 mi
10:30 am32 °FLow clouds.12 mph100%29.59 "HgN/A
10:00 am32 °FLow clouds.13 mph100%29.59 "HgN/A
9:30 am32 °FLight snow. Ice fog.10 mph100%29.56 "Hg3 mi
9:00 am32 °FLight snow. Mostly cloudy.14 mph100%29.56 "Hg4 mi
8:30 am32 °FLight snow. Ice fog.10 mph100%29.56 "Hg2 mi
8:00 am32 °FLight snow. Ice fog.8 mph100%29.53 "Hg2 mi
7:30 am32 °FLight snow. Ice fog.9 mph100%29.53 "Hg2 mi
7:00 am32 °FLight snow. Ice fog.9 mph100%29.50 "Hg2 mi
6:30 am32 °FMostly cloudy.12 mph100%29.50 "HgN/A
6:00 am32 °FLight rain. Mostly cloudy.10 mph100%29.50 "Hg4 mi
5:30 am32 °FLight rain. Mostly cloudy.12 mph100%29.50 "HgN/A
5:00 am32 °FSnow. Ice fog.12 mph100%29.47 "Hg3 mi
4:30 am32 °FLight snow. Low clouds.10 mph100%29.47 "Hg6 mi
4:00 am34 °FSnow. Fog.12 mph93%29.47 "Hg2 mi
3:30 am34 °FLight snow. Mostly cloudy.12 mph93%29.47 "Hg4 mi
3:00 am34 °FLight rain. Mostly cloudy.10 mph93%29.47 "HgN/A
2:30 am34 °FOvercast.12 mph93%29.45 "HgN/A
2:00 am34 °FOvercast.14 mph93%29.45 "HgN/A
1:30 am34 °FLow clouds.10 mph93%29.45 "HgN/A
1:00 am34 °FMostly cloudy.6 mph93%29.45 "HgN/A
12:30 am34 °FLight snow. Fog.8 mph93%29.45 "Hg3 mi
12:00 am34 °FPartly cloudy.10 mph93%29.45 "HgN/A
11:30 pm
Sun, Jan 24
34 °FLight snow. Overcast.10 mph93%29.47 "Hg4 mi
11:00 pm34 °FLight rain. Low clouds.10 mph93%29.47 "Hg4 mi
10:30 pm32 °FMostly cloudy.10 mph100%29.47 "HgN/A
10:00 pm32 °FLight snow. Ice fog.13 mph100%29.47 "Hg3 mi
9:30 pm32 °FLight rain. Mostly cloudy.13 mph93%29.47 "Hg4 mi
9:00 pm32 °FOvercast.12 mph93%29.50 "Hg5 mi
8:30 pm32 °FLight snow. Mostly cloudy.9 mph93%29.50 "HgN/A
8:00 pm32 °FLight snow. Ice fog.8 mph93%29.50 "Hg1 mi
7:30 pm32 °FLight snow. Ice fog.12 mph93%29.50 "Hg2 mi
7:00 pm32 °FLight snow. Ice fog.14 mph93%29.53 "Hg2 mi
Weather by CustomWeather, © 2021

See weather overview